DLH25N LPPD-EDDF

Flight info

Callsign DLH25N
Flight time N/A
Altitude 35000
Route BEKUN DCT 36N020W DCT LUTAK/N0455F360 DCT DEMOS DCT LOTEE DCT NOVAN DCT AZFIC UN741 MOKOR UN873 OBATO/N0460F340 UM163 TSU UN858 OQQAL DCT RANUX/N0456F350 DCT VALEK DCT LIPNI/N0461F330 UN858 LIMGO Z111 TUTOV/N0406F230 Z111 RAMOB IMCOM1D
Aircraft A21N/M-SDE2E3FGHIRWXY/LB1

Departure

Time 2026-04-28 11:51
Airport João Paulo II Airport (LPPD)

Arrival

Time N/A
Airport Frankfurt Main Airport (EDDF)
Time Latitude Longitude Altitude Speed Heading
2026-04-28 11:27 37.74330 -25.69609 221 ft 0 kts 103°
2026-04-28 11:47 37.74330 -25.69607 221 ft 1 kts 103°
2026-04-28 11:47 37.74328 -25.69600 221 ft 1 kts 107°
2026-04-28 11:47 37.74327 -25.69599 221 ft 1 kts 111°
2026-04-28 11:47 37.74314 -25.69601 226 ft 4 kts 221°
2026-04-28 11:48 37.74308 -25.69660 222 ft 10 kts 265°
2026-04-28 11:48 37.74250 -25.69732 222 ft 14 kts 210°
2026-04-28 11:48 37.74227 -25.69856 226 ft 19 kts 288°
2026-04-28 11:48 37.74272 -25.69996 232 ft 16 kts 291°
2026-04-28 11:49 37.74323 -25.70150 238 ft 17 kts 290°
2026-04-28 11:49 37.74370 -25.70314 245 ft 23 kts 292°
2026-04-28 11:49 37.74424 -25.70486 252 ft 22 kts 288°
2026-04-28 11:49 37.74440 -25.70538 253 ft 27 kts 291°
2026-04-28 11:50 37.74507 -25.70738 260 ft 16 kts 291°
2026-04-28 11:50 37.74553 -25.70873 263 ft 18 kts 287°
2026-04-28 11:50 37.74631 -25.70976 266 ft 14 kts 322°
2026-04-28 11:50 37.74626 -25.71069 269 ft 13 kts 185°
2026-04-28 11:51 37.74597 -25.71031 267 ft 4 kts 110°
2026-04-28 11:51 37.74478 -25.70646 257 ft 95 kts 112°
2026-04-28 11:51 37.74148 -25.69590 469 ft 145 kts 112°
2026-04-28 11:51 37.73808 -25.68346 1335 ft 156 kts 113°
2026-04-28 11:52 37.73436 -25.67018 2119 ft 168 kts 118°
2026-04-28 11:52 37.72962 -25.65520 2675 ft 197 kts 117°
2026-04-28 11:52 37.72301 -25.63906 3334 ft 218 kts 129°
2026-04-28 11:52 37.71198 -25.62484 4024 ft 236 kts 149°
2026-04-28 11:53 37.69702 -25.61571 4931 ft 243 kts 167°
2026-04-28 11:53 37.68028 -25.61347 5839 ft 251 kts 185°
2026-04-28 11:53 37.66322 -25.61889 6777 ft 258 kts 205°
2026-04-28 11:53 37.64806 -25.63158 7712 ft 265 kts 220°
2026-04-28 11:54 37.63451 -25.64793 8819 ft 268 kts 226°
2026-04-28 11:54 37.62259 -25.66571 9999 ft 270 kts 231°
2026-04-28 11:54 37.61168 -25.68570 10732 ft 289 kts 237°
2026-04-28 11:54 37.60177 -25.70927 11116 ft 318 kts 244°
2026-04-28 11:55 37.59368 -25.73647 11457 ft 345 kts 251°
2026-04-28 11:55 37.58825 -25.76706 11785 ft 369 kts 259°
2026-04-28 11:55 37.58635 -25.80007 12238 ft 386 kts 268°
2026-04-28 11:55 37.58863 -25.83421 12895 ft 394 kts 276°
2026-04-28 11:56 37.59516 -25.86807 13630 ft 401 kts 285°
2026-04-28 11:56 37.60603 -25.90077 14283 ft 408 kts 294°
2026-04-28 11:56 37.62124 -25.93132 14888 ft 416 kts 304°
2026-04-28 11:56 37.64071 -25.95881 15502 ft 423 kts 314°
2026-04-28 11:57 37.66394 -25.98209 16077 ft 431 kts 323°
2026-04-28 11:57 37.69100 -25.99888 16616 ft 440 kts 339°
2026-04-28 11:57 37.72146 -26.00606 17153 ft 449 kts 355°
2026-04-28 11:57 37.75256 -26.00254 17674 ft 456 kts 12°
2026-04-28 11:58 37.78204 -25.98862 18190 ft 461 kts 27°
2026-04-28 11:58 37.80805 -25.96495 18650 ft 465 kts 44°
2026-04-28 11:58 37.82840 -25.93308 19091 ft 466 kts 60°
2026-04-28 11:58 37.84135 -25.89559 19550 ft 467 kts 76°
2026-04-28 11:59 37.84601 -25.85510 20017 ft 465 kts 92°
2026-04-28 11:59 37.84237 -25.81462 20505 ft 464 kts 104°
2026-04-28 11:59 37.83610 -25.77428 20992 ft 469 kts 103°
2026-04-28 11:59 37.83181 -25.73314 21516 ft 475 kts 98°
2026-04-28 12:00 37.82943 -25.69118 22060 ft 480 kts 95°
2026-04-28 12:00 37.82802 -25.64865 22581 ft 485 kts 95°
2026-04-28 12:00 37.82681 -25.60591 23080 ft 489 kts 95°
2026-04-28 12:00 37.82556 -25.56268 23548 ft 493 kts 95°
2026-04-28 12:01 37.82417 -25.51919 23936 ft 496 kts 95°
2026-04-28 12:01 37.82266 -25.47528 24275 ft 499 kts 95°
2026-04-28 12:01 37.82118 -25.43127 24641 ft 503 kts 95°
2026-04-28 12:01 37.81968 -25.38714 25114 ft 503 kts 95°
2026-04-28 12:02 37.81812 -25.34284 25661 ft 502 kts 95°
2026-04-28 12:02 37.81659 -25.29882 26221 ft 501 kts 95°
2026-04-28 12:02 37.81509 -25.25533 26774 ft 500 kts 95°
2026-04-28 12:02 37.81349 -25.21142 27331 ft 499 kts 95°
2026-04-28 12:03 37.81194 -25.16766 27908 ft 498 kts 95°
2026-04-28 12:03 37.81035 -25.12396 28437 ft 497 kts 95°
2026-04-28 12:03 37.80876 -25.08033 28993 ft 496 kts 95°
2026-04-28 12:03 37.80714 -25.03671 29547 ft 495 kts 95°
2026-04-28 12:04 37.80548 -24.99321 30143 ft 494 kts 95°
2026-04-28 12:04 37.80380 -24.94987 30624 ft 492 kts 95°
2026-04-28 12:04 37.80216 -24.90669 31113 ft 491 kts 95°
2026-04-28 12:04 37.80044 -24.86369 31594 ft 489 kts 95°
2026-04-28 12:05 37.79875 -24.82076 32064 ft 488 kts 95°
2026-04-28 12:05 37.79706 -24.77794 32535 ft 487 kts 95°
2026-04-28 12:05 37.79536 -24.73532 32997 ft 485 kts 95°
2026-04-28 12:05 37.79370 -24.69272 33449 ft 484 kts 95°
2026-04-28 12:06 37.79203 -24.65039 33946 ft 481 kts 95°
2026-04-28 12:06 37.79033 -24.60820 34363 ft 479 kts 95°
2026-04-28 12:06 37.78859 -24.56619 34692 ft 479 kts 95°
2026-04-28 12:06 37.78680 -24.52406 35003 ft 479 kts 95°
2026-04-28 12:07 37.78499 -24.48238 35123 ft 479 kts 95°
2026-04-28 12:07 37.78324 -24.44039 35140 ft 478 kts 95°
2026-04-28 12:07 37.77964 -24.35635 35123 ft 477 kts 95°
2026-04-28 12:08 37.77601 -24.27265 35119 ft 477 kts 95°
2026-04-28 12:08 37.77230 -24.18885 35120 ft 477 kts 95°
2026-04-28 12:09 37.76861 -24.10522 35124 ft 477 kts 95°
2026-04-28 12:09 37.76463 -24.02156 35124 ft 477 kts 95°
2026-04-28 12:10 37.76064 -23.93781 35133 ft 477 kts 95°
2026-04-28 12:10 37.75668 -23.85463 35130 ft 477 kts 95°
2026-04-28 12:11 37.75297 -23.77089 35127 ft 477 kts 95°
2026-04-28 12:11 37.75067 -23.68708 35118 ft 479 kts 85°
2026-04-28 12:12 37.75834 -23.64619 35215 ft 481 kts 69°
2026-04-28 12:12 37.77211 -23.60773 35524 ft 480 kts 64°
2026-04-28 12:12 37.78674 -23.56973 35828 ft 481 kts 64°
2026-04-28 12:12 37.80125 -23.53147 36100 ft 482 kts 65°
2026-04-28 12:13 37.82985 -23.45481 36169 ft 482 kts 65°
2026-04-28 12:13 37.85827 -23.37810 36145 ft 481 kts 65°
2026-04-28 12:14 37.88664 -23.30134 36136 ft 481 kts 65°
2026-04-28 12:14 37.91497 -23.22456 36138 ft 481 kts 65°
2026-04-28 12:15 37.94332 -23.14782 36139 ft 481 kts 64°
2026-04-28 12:15 37.97169 -23.07167 36139 ft 480 kts 64°
2026-04-28 12:16 37.99991 -22.99493 36142 ft 480 kts 65°
2026-04-28 12:16 38.02796 -22.91805 36142 ft 480 kts 65°
2026-04-28 12:17 38.05610 -22.84109 36145 ft 480 kts 65°
2026-04-28 12:17 38.08383 -22.76392 36144 ft 480 kts 65°
2026-04-28 12:18 38.11171 -22.68696 36147 ft 480 kts 65°
2026-04-28 12:18 38.13943 -22.60988 36146 ft 480 kts 65°
2026-04-28 12:19 38.16712 -22.53278 36150 ft 480 kts 65°
2026-04-28 12:19 38.19498 -22.45566 36152 ft 480 kts 65°
2026-04-28 12:20 38.22246 -22.37846 36151 ft 479 kts 65°
2026-04-28 12:20 38.25017 -22.30125 36151 ft 479 kts 64°
2026-04-28 12:21 38.27764 -22.22458 36153 ft 480 kts 65°
2026-04-28 12:21 38.30500 -22.14714 36154 ft 480 kts 65°
2026-04-28 12:22 38.33247 -22.06972 36156 ft 480 kts 65°
2026-04-28 12:22 38.36014 -21.99238 36158 ft 480 kts 65°
2026-04-28 12:23 38.38298 -21.92790 36156 ft 480 kts 65°
2026-04-28 12:23 38.41030 -21.85017 36158 ft 480 kts 65°
2026-04-28 12:24 38.43759 -21.77245 36162 ft 480 kts 65°
2026-04-28 12:24 38.46481 -21.69465 36164 ft 480 kts 65°
2026-04-28 12:25 38.49201 -21.61692 36166 ft 480 kts 65°
2026-04-28 12:25 38.51914 -21.53906 36164 ft 480 kts 65°
2026-04-28 12:26 38.54613 -21.46161 36161 ft 480 kts 64°
2026-04-28 12:26 38.57297 -21.38358 36159 ft 480 kts 65°
2026-04-28 12:27 38.60003 -21.30569 36157 ft 479 kts 64°
2026-04-28 12:27 38.62702 -21.22759 36161 ft 479 kts 65°
2026-04-28 12:28 38.65386 -21.14937 36165 ft 480 kts 65°
2026-04-28 12:28 38.68044 -21.07167 36167 ft 480 kts 64°
2026-04-28 12:29 38.72072 -20.95429 36160 ft 480 kts 64°
2026-04-28 12:30 38.74736 -20.87600 36162 ft 480 kts 64°
2026-04-28 12:30 38.77400 -20.79766 36174 ft 480 kts 64°
2026-04-28 12:31 38.80065 -20.71907 36162 ft 481 kts 64°
2026-04-28 12:31 38.82734 -20.64047 36158 ft 481 kts 64°
2026-04-28 12:32 38.85389 -20.56175 36159 ft 481 kts 64°
2026-04-28 12:32 38.88037 -20.48300 36160 ft 481 kts 64°
2026-04-28 12:33 38.90697 -20.40421 36162 ft 481 kts 64°
2026-04-28 12:33 38.93326 -20.32572 36162 ft 481 kts 64°
2026-04-28 12:34 38.95962 -20.24662 36162 ft 481 kts 64°
2026-04-28 12:34 38.98589 -20.16752 36162 ft 481 kts 64°
2026-04-28 12:35 39.01199 -20.08845 36161 ft 480 kts 63°
2026-04-28 12:35 39.03824 -20.00958 36160 ft 480 kts 63°
2026-04-28 12:36 39.06426 -19.93054 36160 ft 480 kts 64°
2026-04-28 12:36 39.09027 -19.85154 36160 ft 480 kts 64°
2026-04-28 12:37 39.11615 -19.77238 36164 ft 479 kts 63°
2026-04-28 12:37 39.14199 -19.69355 36157 ft 477 kts 63°
2026-04-28 12:38 39.16765 -19.61475 36154 ft 477 kts 63°
2026-04-28 12:38 39.19336 -19.53570 36153 ft 477 kts 63°
2026-04-28 12:39 39.21882 -19.45723 36170 ft 477 kts 63°
2026-04-28 12:39 39.24437 -19.37828 36153 ft 477 kts 63°
2026-04-28 12:40 39.26981 -19.29927 36146 ft 477 kts 63°
2026-04-28 12:40 39.29522 -19.22028 36162 ft 477 kts 63°
2026-04-28 12:41 39.32063 -19.14112 36150 ft 477 kts 63°
2026-04-28 12:41 39.34598 -19.06176 36154 ft 476 kts 63°
2026-04-28 12:42 39.37121 -18.98264 36145 ft 476 kts 63°
2026-04-28 12:42 39.39641 -18.90347 36145 ft 476 kts 63°
2026-04-28 12:43 39.42148 -18.82420 36143 ft 476 kts 63°
2026-04-28 12:43 39.44656 -18.74492 36142 ft 476 kts 63°
2026-04-28 12:44 39.47161 -18.66557 36140 ft 476 kts 63°
2026-04-28 12:44 39.49659 -18.58611 36142 ft 476 kts 63°
2026-04-28 12:45 39.52150 -18.50665 36143 ft 476 kts 63°
2026-04-28 12:45 39.54634 -18.42706 36156 ft 476 kts 62°
2026-04-28 12:46 39.57105 -18.34771 36140 ft 474 kts 62°
2026-04-28 12:46 39.59533 -18.26871 36137 ft 474 kts 63°
2026-04-28 12:47 39.61967 -18.18913 36138 ft 474 kts 63°
2026-04-28 12:47 39.64427 -18.10969 36131 ft 474 kts 63°
2026-04-28 12:48 39.66872 -18.03036 36144 ft 472 kts 62°
2026-04-28 12:48 39.69299 -17.95117 36133 ft 472 kts 62°
2026-04-28 12:49 39.71729 -17.87192 36127 ft 472 kts 62°
2026-04-28 12:49 39.74156 -17.79273 36127 ft 472 kts 62°
2026-04-28 12:50 39.76581 -17.71369 36144 ft 468 kts 62°
2026-04-28 12:50 39.78978 -17.63514 36129 ft 467 kts 62°
2026-04-28 12:51 39.81360 -17.55656 36123 ft 467 kts 62°
2026-04-28 12:51 39.83736 -17.47795 36122 ft 467 kts 62°
2026-04-28 12:52 39.86105 -17.39919 36120 ft 467 kts 62°
2026-04-28 12:52 39.88462 -17.32063 36118 ft 465 kts 62°
2026-04-28 12:53 39.90813 -17.24206 36122 ft 466 kts 62°
2026-04-28 12:53 39.93156 -17.16339 36115 ft 466 kts 62°
2026-04-28 12:54 39.95480 -17.08517 36112 ft 466 kts 62°
2026-04-28 12:54 39.97818 -17.00633 36127 ft 467 kts 62°
2026-04-28 12:55 40.00157 -16.92728 36111 ft 467 kts 62°
2026-04-28 12:55 40.02491 -16.84815 36103 ft 467 kts 62°
2026-04-28 12:56 40.04816 -16.76892 36093 ft 468 kts 63°
2026-04-28 12:56 40.07136 -16.68954 36128 ft 468 kts 63°
2026-04-28 12:57 40.09462 -16.61012 36106 ft 468 kts 63°
2026-04-28 12:57 40.11778 -16.53058 36093 ft 468 kts 63°
2026-04-28 12:58 40.14088 -16.45108 36088 ft 468 kts 63°
2026-04-28 12:58 40.16394 -16.37147 36086 ft 468 kts 63°
2026-04-28 12:59 40.18675 -16.29236 36098 ft 468 kts 63°
2026-04-28 12:59 40.20958 -16.21281 36085 ft 466 kts 63°
2026-04-28 13:00 40.23239 -16.13339 36076 ft 466 kts 63°
2026-04-28 13:00 40.25510 -16.05382 36076 ft 466 kts 63°
2026-04-28 13:01 40.27778 -15.97429 36107 ft 466 kts 63°
2026-04-28 13:01 40.30039 -15.89467 36077 ft 466 kts 63°
2026-04-28 13:02 40.32298 -15.81501 36071 ft 467 kts 64°
2026-04-28 13:02 40.34546 -15.73526 36062 ft 467 kts 64°
2026-04-28 13:03 40.36796 -15.65545 36063 ft 467 kts 64°
2026-04-28 13:03 40.39036 -15.57539 36058 ft 468 kts 65°
2026-04-28 13:04 40.41286 -15.49507 36056 ft 469 kts 65°
2026-04-28 13:04 40.43518 -15.41517 36054 ft 469 kts 65°